Weather History for K7L2 - March, 2014

Change the Weather History Date:

Friday, March 7, 2014

  Actual Average (KBIS) Record (KBIS)
Temperature  
Mean Temperature 16 °F 26 °F  
Max Temperature 26 °F 36 °F 66 °F (1898)
Min Temperature 6 °F 16 °F -21 °F (1995)
Degree Days  
Heating Degree Days 49 39  
Month to date heating degree days 284  
Since 1 July heating degree days 6715  
Cooling Degree Days 0 0  
Month to date cooling degree days 0  
Year to date cooling degree days 0  
Moisture  
Dew Point 12 °F    
Average Humidity 88    
Maximum Humidity 100    
Minimum Humidity 73    
Precipitation  
Precipitation 0.01 in 0.03 in 0.17 in (1983)
Month to date precipitation 0.17  
Year to date precipitation 1.11  
Snow  
Snow 0.00 in 0.30 in 3.60 in (1983)
Month to date snowfall 2.2  
Since 1 July snowfall 39.7  
Snow Depth -    
Sea Level Pressure  
Sea Level Pressure 30.12 in    
Wind  
Wind Speed 16 mph (North)    
Max Wind Speed 25 mph    
Max Gust Speed 34 mph    
Visibility 10 miles    
Events Rain , Snow    
T = Trace of Precipitation, MM = Missing Value Source: NWS Daily Summary

Daily Weather History Graph

Daily Weather History Graph

Search for Another Location

Airport or City:

Trip Planner

Search our weather history database for the weather conditions in past years. The results will help you decide how hot, cold, wet, or windy it might be!

Date:

Astronomy

Mar. 07, 2014 Rise Set
Actual Time 7:08 AM CST 6:35 PM CST
Civil Twilight 6:38 AM CST 7:05 PM CST
Nautical Twilight 6:04 AM CST 7:40 PM CST
Astronomical Twilight 5:29 AM CST 8:15 PM CST
Moon 10:42 AM CST 1:02 AM CST
Length of Visible Light 12h 26m
Length of Day
11h 26m
Waxing Crescent, 42% of the Moon is Illuminated
Mar 7
Waxing Crescent
Mar 8
First Quarter
Mar 16
Full
Mar 23
Last Quarter
Mar 30
New

Hourly Weather History & Observations

Time (CST) Temp. Windchill Dew Point Humidity Pressure Visibility Wind Dir Wind Speed Gust Speed Precip Events Conditions
12:15 AM 26.6 °F 12.0 °F 26.6 °F 100% 29.83 in 10.0 mi NNW 23.0 mph 34.5 mph N/A   Overcast
12:35 AM 24.8 °F 10.3 °F 23.0 °F 93% 29.84 in 10.0 mi NNW 20.7 mph 26.5 mph N/A   Mostly Cloudy
12:55 AM 23.0 °F 7.2 °F 23.0 °F 100% 29.84 in 10.0 mi NNW 23.0 mph 28.8 mph N/A   Partly Cloudy
1:15 AM 23.0 °F 7.2 °F 21.2 °F 93% 29.86 in 10.0 mi NNW 23.0 mph 28.8 mph N/A   Clear
1:35 AM 21.2 °F 4.2 °F 19.4 °F 93% 29.86 in 10.0 mi NNW 25.3 mph 32.2 mph N/A   Scattered Clouds
1:55 AM 19.4 °F 4.1 °F 19.4 °F 100% 29.88 in 10.0 mi NNW 18.4 mph 28.8 mph N/A   Scattered Clouds
2:15 AM 19.4 °F 6.0 °F 17.6 °F 93% 29.89 in 10.0 mi NNW 13.8 mph 21.9 mph N/A   Mostly Cloudy
2:35 AM 19.4 °F 4.5 °F 17.6 °F 93% 29.91 in 10.0 mi NNW 17.3 mph 27.6 mph N/A   Overcast
2:55 AM 19.4 °F 4.5 °F 15.8 °F 86% 29.92 in 10.0 mi NNW 17.3 mph - N/A   Overcast
3:15 AM 19.4 °F 3.2 °F 15.8 °F 86% 29.92 in 10.0 mi NNW 20.7 mph 27.6 mph N/A   Overcast
3:35 AM 19.4 °F 5.5 °F 15.8 °F 86% 29.93 in 10.0 mi NNW 15.0 mph 28.8 mph N/A   Overcast
3:55 AM 19.4 °F 3.6 °F 15.8 °F 86% 29.94 in 10.0 mi NNW 19.6 mph 26.5 mph N/A   Overcast
4:15 AM 17.6 °F 2.2 °F 14.0 °F 86% 29.95 in 10.0 mi NNW 17.3 mph 27.6 mph N/A   Overcast
4:35 AM 17.6 °F 5.0 °F 15.8 °F 93% 29.97 in 10.0 mi NNW 11.5 mph - N/A   Overcast
4:55 AM 17.6 °F 0.9 °F 15.8 °F 93% 29.98 in 10.0 mi NNW 20.7 mph 25.3 mph N/A Snow Light Snow
5:15 AM 17.6 °F 2.7 °F 15.8 °F 93% 29.98 in 10.0 mi NW 16.1 mph 26.5 mph N/A Snow Light Snow
5:35 AM 15.8 °F -1.1 °F 14.0 °F 93% 29.99 in 10.0 mi NNW 19.6 mph 24.2 mph N/A Snow Light Snow
5:55 AM 15.8 °F 0.3 °F 14.0 °F 93% 29.99 in 10.0 mi NNW 16.1 mph 21.9 mph N/A   Overcast
6:15 AM 15.8 °F 0.9 °F 14.0 °F 93% 30.02 in 10.0 mi NNW 15.0 mph 24.2 mph N/A   Overcast
6:35 AM 15.8 °F 0.3 °F 12.2 °F 86% 30.04 in 10.0 mi NNW 16.1 mph 23.0 mph N/A   Overcast
6:55 AM 14.0 °F 1.2 °F 12.2 °F 93% 30.05 in 10.0 mi NNW 10.4 mph 21.9 mph N/A Snow Light Snow
7:15 AM 14.0 °F -3.0 °F 10.4 °F 86% 30.06 in 10.0 mi NNW 18.4 mph 25.3 mph N/A Snow Light Snow
7:35 AM 12.2 °F -3.1 °F 10.4 °F 92% 30.08 in 8.0 mi NNW 13.8 mph - 0.01 in Snow Light Snow
7:55 AM 12.2 °F -2.5 °F 8.6 °F 85% 30.09 in 10.0 mi NNW 12.7 mph 24.2 mph 0.01 in   Overcast
8:15 AM 12.2 °F -2.5 °F 8.6 °F 85% 30.09 in 10.0 mi NNW 12.7 mph - N/A Snow Light Snow
8:35 AM 12.2 °F -2.5 °F 8.6 °F 85% 30.10 in 10.0 mi NNW 12.7 mph 21.9 mph N/A   Partly Cloudy
8:55 AM 12.2 °F -1.8 °F 8.6 °F 85% 30.11 in 10.0 mi NNW 11.5 mph - N/A   Clear
9:15 AM 12.2 °F -4.3 °F 8.6 °F 85% 30.12 in 10.0 mi NNW 16.1 mph - N/A   Clear
9:35 AM 14.0 °F -2.0 °F 8.6 °F 79% 30.13 in 10.0 mi NNW 16.1 mph - N/A   Clear
9:55 AM 14.0 °F -0.8 °F 8.6 °F 79% 30.15 in 10.0 mi NNW 13.8 mph - N/A   Partly Cloudy
10:15 AM 14.0 °F -0.2 °F 8.6 °F 79% 30.15 in 10.0 mi NNW 12.7 mph - N/A   Mostly Cloudy
10:35 AM 14.0 °F -0.8 °F 8.6 °F 79% 30.16 in 10.0 mi NNW 13.8 mph - N/A   Mostly Cloudy
10:55 AM 14.0 °F -2.5 °F 8.6 °F 79% 30.16 in 10.0 mi North 17.3 mph - N/A   Overcast
11:15 AM 14.0 °F -1.4 °F 8.6 °F 79% 30.16 in 10.0 mi NNW 15.0 mph - N/A   Overcast
11:35 AM 14.0 °F -2.5 °F 8.6 °F 79% 30.17 in 10.0 mi North 17.3 mph - N/A   Scattered Clouds
11:55 AM 15.8 °F -1.1 °F 8.6 °F 73% 30.17 in 10.0 mi North 19.6 mph - N/A   Partly Cloudy
12:15 PM 14.0 °F -2.0 °F 8.6 °F 79% 30.18 in 10.0 mi NNW 16.1 mph 21.9 mph N/A   Partly Cloudy
12:35 PM 15.8 °F 0.3 °F 8.6 °F 73% 30.19 in 10.0 mi NNW 16.1 mph 21.9 mph N/A   Clear
12:55 PM 15.8 °F 1.4 °F 8.6 °F 73% 30.20 in 10.0 mi NNW 13.8 mph 20.7 mph N/A   Clear
1:15 PM 15.8 °F 2.1 °F 10.4 °F 79% 30.20 in 10.0 mi NNW 12.7 mph - N/A   Clear
1:35 PM 17.6 °F 4.3 °F 10.4 °F 73% 30.19 in 10.0 mi NNW 12.7 mph 20.7 mph N/A   Scattered Clouds
1:55 PM 17.6 °F 4.3 °F 10.4 °F 73% 30.19 in 10.0 mi North 12.7 mph - N/A   Mostly Cloudy
2:15 PM 17.6 °F 4.3 °F 12.2 °F 79% 30.19 in 10.0 mi North 12.7 mph - N/A Snow Light Snow
2:35 PM 17.6 °F 3.7 °F 10.4 °F 73% 30.19 in 10.0 mi North 13.8 mph - N/A   Overcast
2:55 PM 17.6 °F 4.3 °F 12.2 °F 79% 30.19 in 10.0 mi North 12.7 mph - N/A Rain Light Freezing Rain
5:15 PM 17.6 °F 6.4 °F 12.2 °F 79% 30.23 in 9.0 mi North 9.2 mph - N/A Snow Light Snow
5:35 PM 15.8 °F 5.1 °F 12.2 °F 86% 30.22 in 10.0 mi North 8.1 mph - N/A Rain Light Freezing Rain
5:55 PM 15.8 °F 6.1 °F 12.2 °F 86% 30.23 in 10.0 mi NNE 6.9 mph - N/A   Scattered Clouds
6:15 PM 15.8 °F 5.1 °F 10.4 °F 79% 30.23 in 10.0 mi NNE 8.1 mph - N/A   Clear
6:35 PM 14.0 °F 8.2 °F 10.4 °F 86% 30.24 in 10.0 mi NNE 3.5 mph - N/A   Clear
6:55 PM 14.0 °F 8.2 °F 10.4 °F 86% 30.25 in 10.0 mi North 3.5 mph - N/A   Clear
7:15 PM 12.2 °F 6.1 °F 8.6 °F 85% 30.26 in 10.0 mi NNE 3.5 mph - N/A   Clear
7:35 PM 10.4 °F 4.0 °F 8.6 °F 92% 30.26 in 10.0 mi ENE 3.5 mph - N/A   Clear
7:55 PM 10.4 °F - 8.6 °F 92% 30.26 in 10.0 mi Calm Calm - N/A   Mostly Cloudy
8:15 PM 10.4 °F 4.0 °F 8.6 °F 92% 30.26 in 10.0 mi NE 3.5 mph - N/A   Partly Cloudy
8:35 PM 10.4 °F - 8.6 °F 92% 30.28 in 10.0 mi Calm Calm - N/A   Clear
8:55 PM 8.6 °F - 8.6 °F 100% 30.28 in 10.0 mi Calm Calm - N/A   Clear
9:15 PM 8.6 °F 2.0 °F 8.6 °F 100% 30.28 in 10.0 mi NNE 3.5 mph - N/A   Clear
9:35 PM 8.6 °F 0.1 °F 8.6 °F 100% 30.28 in 10.0 mi East 4.6 mph - N/A   Clear
9:55 PM 6.8 °F -2.0 °F 6.8 °F 100% 30.28 in 10.0 mi ESE 4.6 mph - N/A   Mostly Cloudy
10:15 PM 8.6 °F 2.0 °F 8.6 °F 100% 30.29 in 10.0 mi East 3.5 mph - N/A   Overcast
10:35 PM 8.6 °F 0.1 °F 8.6 °F 100% 30.29 in 10.0 mi ENE 4.6 mph - N/A   Overcast
10:55 PM 8.6 °F -1.3 °F 8.6 °F 100% 30.29 in 10.0 mi East 5.8 mph - N/A   Overcast
11:15 PM 10.4 °F - 10.4 °F 100% 30.29 in 10.0 mi Calm Calm - N/A   Overcast
11:35 PM 10.4 °F 4.0 °F 10.4 °F 100% 30.29 in 10.0 mi East 3.5 mph - N/A   Overcast
11:55 PM 12.2 °F 6.1 °F 12.2 °F 100% 30.28 in 10.0 mi East 3.5 mph - N/A   Overcast